STARLINK-1976 (47574 NORAD) Tracking and Keplerian Element Data
This shows tracking and keplerian element data for the satellite.
Feedback or suggestion? Click here.
Element | Value |
Catalog | 47574 |
Name | STARLINK-1976 |
Epoch Orbit | 177 |
Epoch Day | 59.91667824 |
Epoch Year | 2021 |
RAAN | 3.0289 |
Inclination | 53.0536 |
Eccentricity | 0.0001291 |
Argument of Perigee | 50.6622 |
Mean Anonmoly | 246.2373 |
Mean Motion | 15.5706846 |
Decay Rate | -0.00929501 |
L1 | 1 47574U 21009AC 21059.91667824 -.00929501 00000-0 -13908-1 0 9999 |
L2 | 2 47574 53.0536 3.0289 0001291 50.6622 246.2373 15.57068460 1771 |
Live tracking and technical data element details for STARLINK-1976 (NORAD 47574). STARLINK-1976 can be tracked NOW for your location showing map with azimuth and elevation plus other details from your city location.
Track the satellite on the map from your city or location and see movement details for azimuth, elevation, latitude, longitude, range, height, and movement on the map or in text.
IsCatalogInMostPopularTable: catalog: 47574, numindb: 3
Update: records affected: 1
GetName: 47574 STARLINK-1976
Hit Count: updated at: Mon, 01 Mar 2021 16:57:30 GMT